Stations météo

réclame
Mon MeteoGroup
Ile Rousse, France (7753): Température de l'air & dewpoint: 16.10.2018 16:00:00 - 22.10.2018 16:00:00 (CEST)Ile Rousse, France (7753): Vitesse du vent & gusts: 16.10.2018 16:00:00 - 22.10.2018 16:00:00 (CEST)Ile Rousse, France (7753): Direction du vent: 16.10.2018 16:00:00 - 22.10.2018 16:00:00 (CEST)Ile Rousse, France (7753): reduced air pressure: 16.10.2018 16:00:00 - 22.10.2018 16:00:00 (CEST)Ile Rousse, France (7753): visibility: 16.10.2018 16:00:00 - 22.10.2018 16:00:00 (CEST)Ile Rousse, France (7753): Quantités de précipitations: 16.10.2018 16:00:00 - 22.10.2018 16:00:00 (CEST)
Date & Time tt [°C] td [°C] ff [km/h] ff [knt] fx [km/h] fx [knt] dd ppp [hPa] vv [km] rr [mm]
22.10.2018 16:00:00 17,0 6,5 24 13 32 18 NE 1017,3 20 0,0
22.10.2018 15:00:00 17,1 7,2 21 11 40 22 NE 1017,6 - 0,0
22.10.2018 14:00:00 17,3 6,5 32 17 55 30 NE 1017,9 - 0,0
22.10.2018 13:00:00 16,3 5,0 42 23 54 29 NE 1018,1 - 0,0
22.10.2018 12:00:00 17,0 5,0 33 18 57 31 E 1018,8 - 0,0
22.10.2018 11:00:00 16,4 3,4 35 19 61 33 ENE 1018,7 20 0,0
22.10.2018 10:00:00 15,3 3,1 44 24 62 33 E 1018,7 - 0,0
22.10.2018 09:00:00 14,6 1,8 48 26 76 41 E 1018,1 - 0,0
22.10.2018 08:00:00 14,0 1,6 54 29 80 43 E 1017,0 - 0,0
22.10.2018 07:00:00 14,1 2,3 45 25 81 44 E 1016,9 - 0,0
22.10.2018 06:00:00 14,7 0,9 49 27 73 39 E 1016,4 - 0,0
22.10.2018 05:00:00 15,5 -1,1 45 24 73 40 E 1016,4 - 0,0
22.10.2018 04:00:00 15,5 0,5 38 20 59 32 E 1016,7 - 0,0
22.10.2018 03:00:00 16,4 0,5 35 19 66 35 E 1017,4 - 0,0
22.10.2018 02:00:00 17,0 2,2 49 26 68 37 E 1017,1 - 0,0
22.10.2018 01:00:00 16,9 8,6 43 23 66 36 E 1016,9 - 0,0
22.10.2018 00:00:00 17,4 11,7 34 18 49 27 E 1016,5 - 0,0
21.10.2018 23:00:00 18,8 14,7 17 9 23 13 ENE 1017,0 - 0,0
21.10.2018 22:00:00 18,6 15,1 14 8 21 12 E 1016,7 - 0,0
21.10.2018 21:00:00 18,9 15,4 5 3 14 7 E 1016,0 - 0,0
21.10.2018 20:00:00 19,1 15,0 3 2 16 9 W 1015,3 12 0,0
21.10.2018 19:00:00 19,2 15,7 12 7 27 14 WSW 1014,8 - 0,0
21.10.2018 18:00:00 20,3 16,3 16 9 29 16 W 1014,3 - 0,0
21.10.2018 17:00:00 21,0 16,4 15 8 22 12 W 1014,9 12 0,0
21.10.2018 16:00:00 21,5 16,2 14 8 24 13 W 1015,5 - 0,0
21.10.2018 15:00:00 21,6 15,9 16 9 27 15 W 1016,0 - 0,0
21.10.2018 14:00:00 21,5 16,7 18 10 27 15 W 1016,5 12 0,0
21.10.2018 13:00:00 21,1 17,3 18 10 29 15 W 1017,9 - 0,0
21.10.2018 12:00:00 20,8 16,6 17 9 26 14 W 1018,5 - 0,0
21.10.2018 11:00:00 20,2 15,8 14 7 22 12 W 1018,9 - 0,0
21.10.2018 10:00:00 19,3 13,9 11 6 17 9 WSW 1019,0 - 0,0
21.10.2018 09:00:00 18,6 13,9 6 4 9 5 W 1019,4 - 0,0
21.10.2018 08:00:00 18,8 15,1 4 2 6 3 NW 1018,8 12 0,0
21.10.2018 07:00:00 18,8 13,9 6 3 10 6 SE 1019,1 - 0,0
21.10.2018 06:00:00 18,7 13,3 5 3 12 7 ESE 1019,7 - 0,0
21.10.2018 05:00:00 18,5 12,5 10 6 16 9 E 1019,9 12 0,0
21.10.2018 04:00:00 18,7 13,1 12 7 18 10 NE 1019,9 - 0,0
21.10.2018 03:00:00 18,8 13,0 12 7 16 9 ENE 1020,2 - 0,0
21.10.2018 02:00:00 19,2 13,4 10 6 15 8 ENE 1020,6 - 0,0
21.10.2018 01:00:00 18,8 15,3 7 4 10 5 NE 1021,2 - 0,0
21.10.2018 00:00:00 19,8 14,4 6 3 18 10 SE 1021,3 - 0,0
20.10.2018 23:00:00 19,5 16,7 6 4 10 5 SE 1021,6 - 0,0
20.10.2018 22:00:00 19,5 15,8 5 3 7 4 WSW 1021,3 - 0,0
20.10.2018 21:00:00 19,4 14,4 3 1 7 4 ENE 1020,9 - 0,0
20.10.2018 20:00:00 19,8 16,4 4 2 8 4 NE 1021,0 12 0,0
20.10.2018 19:00:00 19,7 16,5 5 3 9 5 E 1020,5 - 0,0
20.10.2018 18:00:00 21,0 17,0 7 4 12 6 ENE 1020,4 - 0,0
20.10.2018 17:00:00 21,3 16,5 10 6 16 8 ENE 1020,3 - 0,0
20.10.2018 16:00:00 21,4 17,2 11 6 19 10 ENE 1020,4 - 0,0
20.10.2018 15:00:00 21,3 16,7 10 6 17 9 ENE 1020,6 - 0,0
20.10.2018 14:00:00 20,9 17,1 11 6 16 8 NNE 1021,2 18 0,0
20.10.2018 13:00:00 21,3 17,7 6 4 14 8 N 1021,9 - 0,0
20.10.2018 12:00:00 21,4 17,0 8 4 14 8 WNW 1022,1 - 0,0
20.10.2018 11:00:00 20,2 16,6 7 4 15 8 W 1021,6 - 0,0
20.10.2018 10:00:00 19,3 16,1 6 3 10 5 W 1020,9 - 0,0
20.10.2018 09:00:00 19,7 14,3 4 2 7 4 W 1020,3 - 0,0
20.10.2018 08:00:00 19,2 14,5 0 0 7 4 N 1019,5 20 0,0
20.10.2018 07:00:00 19,1 15,2 5 3 8 4 SW 1019,3 - 0,0
20.10.2018 06:00:00 18,9 15,0 6 3 9 5 ENE 1019,2 - 0,0
20.10.2018 05:00:00 19,6 15,5 4 2 13 7 NE 1019,0 20 0,0
20.10.2018 04:00:00 19,3 15,6 11 6 13 7 E 1018,9 - 0,0
20.10.2018 03:00:00 19,2 15,7 7 4 8 4 E 1019,2 - 0,0
20.10.2018 02:00:00 19,6 16,1 3 2 7 4 NNE 1018,9 - 0,0
20.10.2018 01:00:00 19,6 16,4 5 3 7 4 ESE 1018,8 - 0,0
20.10.2018 00:00:00 20,3 16,5 5 3 7 4 NNE 1018,5 - 0,0
19.10.2018 23:00:00 20,0 14,8 3 2 7 4 ENE 1018,3 - 0,0
19.10.2018 22:00:00 20,8 14,7 5 3 12 6 W 1018,0 - 0,0
19.10.2018 21:00:00 20,6 15,6 6 3 17 9 WNW 1017,6 - 0,0
19.10.2018 20:00:00 20,8 15,8 11 6 18 10 WSW 1016,9 18 0,0
19.10.2018 19:00:00 21,7 15,8 9 5 11 6 SW 1016,2 - 0,0
19.10.2018 18:00:00 21,5 17,5 4 2 10 6 S 1015,5 - 0,0
19.10.2018 17:00:00 21,3 17,7 8 4 13 7 NE 1015,3 - 0,0
19.10.2018 16:00:00 21,3 16,9 9 5 22 12 NNE 1015,6 - 0,0
19.10.2018 15:00:00 21,3 15,4 16 9 29 16 NE 1015,5 - 0,0
19.10.2018 14:00:00 21,5 16,7 17 9 31 17 NNE 1015,4 18 0,0
19.10.2018 13:00:00 21,4 16,6 21 12 38 20 NE 1015,5 - 0,0
19.10.2018 12:00:00 21,4 16,8 18 10 32 17 NE 1015,5 18 0,0
19.10.2018 11:00:00 21,4 14,3 2 1 10 5 W 1015,3 - 0,0
19.10.2018 10:00:00 20,4 14,3 5 3 10 5 ENE 1015,1 - 0,0
19.10.2018 09:00:00 18,8 13,2 5 3 9 5 W 1014,7 - 0,0
19.10.2018 08:00:00 19,4 12,4 4 2 21 12 ENE 1013,9 18 0,0
19.10.2018 07:00:00 18,4 12,6 10 5 16 9 ENE 1013,5 - 0,0
19.10.2018 06:00:00 18,9 14,0 4 2 10 5 WSW 1013,6 - 0,0
19.10.2018 05:00:00 19,3 14,1 5 3 7 4 W 1013,4 - 0,0
19.10.2018 04:00:00 19,5 13,9 4 2 11 6 WNW 1013,4 - 0,0
19.10.2018 03:00:00 20,3 13,0 2 1 8 5 NNW 1013,4 - 0,0
19.10.2018 02:00:00 20,2 13,2 5 3 10 5 WSW 1013,2 - 0,0
19.10.2018 01:00:00 21,0 12,4 7 4 15 8 WSW 1013,2 - 0,0
19.10.2018 00:00:00 21,3 12,2 13 7 40 22 ESE 1013,0 - 0,0
18.10.2018 23:00:00 20,7 13,4 29 15 61 33 E 1012,3 - 0,0
18.10.2018 22:00:00 20,9 14,5 47 25 61 33 E 1011,0 - 0,0
18.10.2018 21:00:00 21,0 14,4 40 22 53 29 E 1011,0 - 0,0
18.10.2018 20:00:00 21,2 14,8 39 21 51 27 E 1010,7 15 0,0
18.10.2018 19:00:00 21,6 15,2 40 22 67 36 ENE 1010,1 - 0,0
18.10.2018 18:00:00 23,1 14,6 45 25 62 34 E 1009,2 - 0,0
18.10.2018 17:00:00 23,9 14,6 43 23 70 38 E 1009,1 15 0,0
18.10.2018 16:00:00 24,1 14,5 55 30 71 38 E 1008,8 - 0,0
18.10.2018 15:00:00 24,5 15,1 41 22 63 34 E 1009,5 - 0,0
18.10.2018 14:00:00 24,1 14,8 40 22 57 31 E 1010,4 15 0,0
18.10.2018 13:00:00 23,6 15,1 37 20 61 33 E 1010,8 - 0,0
18.10.2018 12:00:00 22,6 14,2 45 24 68 37 E 1010,9 - 0,0
18.10.2018 11:00:00 22,3 13,9 36 20 55 30 E 1011,0 - 0,0
18.10.2018 10:00:00 21,1 13,3 26 14 45 24 ESE 1011,5 - 0,0
18.10.2018 09:00:00 19,9 13,4 9 5 26 14 ESE 1011,3 - 0,0
18.10.2018 08:00:00 19,9 12,6 13 7 22 12 ESE 1010,9 18 0,0
18.10.2018 07:00:00 18,8 12,8 7 4 24 13 SW 1010,9 - 0,0
18.10.2018 06:00:00 18,6 13,0 18 10 26 14 E 1010,9 - 0,0
18.10.2018 05:00:00 18,7 13,1 16 9 22 12 E 1010,8 - 0,0
18.10.2018 04:00:00 18,8 13,6 14 7 27 15 E 1011,3 - 0,0
18.10.2018 03:00:00 18,8 14,3 16 9 35 19 E 1012,0 - 0,0
18.10.2018 02:00:00 18,5 14,6 24 13 48 26 E 1012,4 - 0,0
18.10.2018 01:00:00 18,9 15,8 35 19 48 26 ENE 1012,8 - 0,0
18.10.2018 00:00:00 19,2 14,9 29 16 55 30 E 1012,9 - 0,0
17.10.2018 23:00:00 19,6 14,8 39 21 56 30 E 1013,0 - 0,0
17.10.2018 22:00:00 20,1 14,2 37 20 53 28 E 1012,4 - 0,0
17.10.2018 21:00:00 19,9 14,7 20 11 45 24 ESE 1012,7 - 0,0
17.10.2018 20:00:00 19,6 15,0 13 7 42 23 SE 1012,8 15 0,0
17.10.2018 19:00:00 18,7 15,9 21 11 37 20 E 1012,4 - 0,2
17.10.2018 18:00:00 19,5 16,7 2 1 14 8 WSW 1012,4 - 0,0
17.10.2018 17:00:00 19,8 17,0 6 4 17 9 NNW 1012,8 15 0,0
17.10.2018 16:00:00 20,3 16,5 12 6 44 24 SE 1012,8 - 0,0
17.10.2018 15:00:00 20,4 17,4 32 17 42 23 E 1012,0 - 0,0
17.10.2018 14:00:00 19,4 17,4 32 18 40 22 ENE 1012,4 15 0,8
17.10.2018 13:00:00 19,0 16,8 33 18 54 29 ENE 1013,5 - 0,6
17.10.2018 12:00:00 18,6 17,3 43 23 55 30 ENE 1013,4 - 0,0
17.10.2018 11:00:00 17,9 16,2 38 21 49 26 E 1013,5 12 0,4
17.10.2018 10:00:00 17,8 16,1 30 16 47 25 ENE 1013,9 - 1,8
17.10.2018 09:00:00 17,4 15,7 36 20 46 25 ENE 1013,4 - 2,4
17.10.2018 08:00:00 18,8 15,1 29 16 42 23 E 1013,5 - 0,2
17.10.2018 07:00:00 19,1 13,9 25 14 34 19 ESE 1013,6 - 0,0
17.10.2018 06:00:00 17,4 14,5 11 6 19 10 E 1014,0 - 0,0
17.10.2018 05:00:00 17,4 14,7 9 5 21 11 ENE 1014,1 - 0,0
17.10.2018 04:00:00 17,0 14,1 15 8 19 10 ENE 1014,6 - 0,0
17.10.2018 03:00:00 18,0 15,6 5 3 16 8 N 1015,2 - 0,0
17.10.2018 02:00:00 17,9 16,4 7 4 9 5 W 1015,4 - 0,0
17.10.2018 01:00:00 18,1 15,7 2 1 12 6 WSW 1015,3 - 0,0
17.10.2018 00:00:00 18,1 15,9 5 3 9 5 ENE 1015,7 - 0,0
16.10.2018 23:00:00 18,2 15,8 3 1 22 12 NE 1016,1 - 0,0
16.10.2018 22:00:00 18,3 15,9 13 7 24 13 E 1016,3 - 0,0
16.10.2018 21:00:00 18,7 17,0 20 11 43 23 E 1015,8 - 0,0
16.10.2018 20:00:00 18,7 16,7 37 20 56 30 NE 1015,5 20 0,0
16.10.2018 19:00:00 18,4 16,6 38 20 51 28 ENE 1015,0 - 0,0
16.10.2018 18:00:00 19,0 17,1 33 18 49 26 ENE 1015,1 - 0,0
16.10.2018 17:00:00 18,5 17,3 24 13 49 27 ENE 1015,2 - 0,4
16.10.2018 16:00:00 18,0 16,8 39 21 52 28 NE 1015,7 - 1,8

tt = Température de l'air
td = dewpoint
ff = Vitesse du vent
fx = gusts
dd = Direction du vent
ppp = reduced air pressure
vv = visibility
rr = Quantités de précipitations

stations d'obs. à proximité